Zurück zum Katalog

SL-18 R/B

AktivLEO
NORAD 22562·ROCKET BODY·🇷🇺 Russia

Gestartet Mar 25, 1993 von Plesetsk Cosmodrome

Loading…

Nächste Überflüge (nächste 24 Stunden)

TLE

AktuellSource: Space-Track

Epoche: Sep 14, 2026, 07:09 UTC

1 22562U 93014B   26257.29830346  .00000102  00000-0  38619-4 0  9995
2 22562  75.7631  22.2550 0161995  30.9729 330.0860 14.30645405744574

Verfolge SL-18 R/B in Echtzeit mit AllMySat

Download on the App Store